User: anonymous   Login
Location: Unspecified
(17.6330°N, 0.0000°E)
Time: 10:19:30
(UTC+00:00)
Language:

Courier 1B - Orbit

View from above orbital plane
View from above orbital plane
View from above satellite
View from above satellite

Ground track
Ground track

The orbit data is extracted from the following two-line orbital elements,

1    58U 60013A   20217.40061981 +.00000088 +00000-0 +66228-5 0  9999
2    58 028.3252 211.3830 0165101 106.2138 255.6640 13.46323286945082
Epoch (UTC): 04 August 2020 09:36:53
Eccentricity: 0.0165101
inclination: 28.3252°
perigee height: 962 km
apogee height: 1209 km
right ascension of ascending node: 211.3830°
argument of perigee: 106.2138°
revolutions per day: 13.46323286
mean anomaly at epoch: 255.6640°
orbit number at epoch: 94508

The dashed part of the orbit path shows where the satellite is in the earth's shadow,  

DLR